Location: Sungai Igah
(2.7333°N, 114.2500°E)
Time: 20:32:13
(UTC+00:00)

ATLAS 2AS CENTAUR R/B - Pass Details

Date: 14 June 2021
Orbit: 949 x 1263 km, 63.7° (Epoch: 22 July)

Event Time Altitude Azimuth Distance (km) Brightness Sun altitude
Exits shadow 21:02:12 16° 207° (SSW) 2,691 4.3 -17.4°
Maximum altitude 21:08:31 80° 292° (WNW) 1,255 2.9 -16.0°
Drops below altitude 10° 21:16:24 10° 19° (NNE) 3,235 5.9 -14.2°
Sets 21:19:13 0° 20° (NNE) 4,204 6.5 -13.6°
